Simultaneous Nadir Overpasses (SNOs) Predictions

Prediction of SNOs between GOES-14 and AQUA Satellite Orbit:

Table of predicted SNOs for the next 14.0 days since TLE Epoch: 8/2/2019
Index Date Time (GOES-14) GOES-14 Lat,Lon AQUA Lat,Lon Distance(km) Time Diff (sec)
1 08/04/2019 08:29:36 -0.33,-104.61 -0.60,-103.28 151.39 80
2 08/04/2019 20:48:21 0.34,-104.78 -0.42,-108.49 420.79 80
3 08/06/2019 08:17:24 -0.32,-104.61 -1.21,-100.32 487.27 80
4 08/06/2019 20:36:09 0.34,-104.78 0.19,-105.52 84.64 80
5 08/08/2019 20:26:37 0.34,-104.78 0.80,-102.56 251.34 80
6 08/09/2019 08:47:53 -0.37,-104.61 0.30,-107.72 353.53 80
7 08/11/2019 08:33:01 -0.37,-104.61 -0.31,-104.76 17.92 80
8 08/13/2019 08:20:50 -0.37,-104.61 -0.99,-101.81 318.17 80
9 08/13/2019 20:42:14 0.39,-104.76 -0.09,-107.01 255.33 80
10 08/15/2019 20:32:42 0.39,-104.77 0.53,-104.05 81.08 80




NCC Satellite Simultaneous Nadir Overpasses (SNOs) Prediction Service
